Clines Corner, NM

3:14 PM MDT on May 28, 2017 (GMT -0600)
Clines Corner

Weather History for KCQC - August, 2013

Change the Weather History Date:

Monday, August 12, 2013

  Actual Average (KSAF) Record (KSAF)
Temperature  
Mean Temperature 65 °F -  
Max Temperature 73 °F 84 °F 96 °F (2002)
Min Temperature 57 °F 53 °F 53 °F (1980)
Growing Degree Days 15 (Base 50)    
Moisture  
Dew Point 55 °F    
Average Humidity 75    
Maximum Humidity 90    
Minimum Humidity 55    
Precipitation  
Precipitation 0.17 in - - ()
Sea Level Pressure  
Sea Level Pressure 30.08 in    
Wind  
Wind Speed 8 mph (SW)    
Max Wind Speed 18 mph    
Max Gust Speed 18 mph    
Visibility 10 miles    
Events Rain    
Averages and records for this station are not official NWS values.
T = Trace of Precipitation, MM = Missing Value Source: NWS Daily Summary

Daily Weather History Graph

Daily Weather History Graph

Search for Another Location

Airport or City:

Trip Planner

Search our weather history database for the weather conditions in past years. The results will help you decide how hot, cold, wet, or windy it might be!

Date:

Astronomy

Aug. 12, 2013 Rise Set
Actual Time 6:20 AM MDT 7:54 PM MDT
Civil Twilight 5:53 AM MDT 8:20 PM MDT
Nautical Twilight 5:21 AM MDT 8:53 PM MDT
Astronomical Twilight 4:47 AM MDT 9:27 PM MDT
Moon 11:57 AM MDT (8/12) 11:05 PM MDT (8/12)
Length of Visible Light 14h 27m
Length of Day
13h 33m
Waxing Crescent, 32% of the Moon is Illuminated
Aug 12
Waxing Crescent
Aug 14
First Quarter
Aug 20
Full
Aug 28
Last Quarter
Sep 5
New

Hourly Weather History & Observations

Time (MDT) Temp. Dew Point Humidity Pressure Visibility Wind Dir Wind Speed Gust Speed Precip Events Conditions
12:53 AM 62.1 °F 55.0 °F 78% 30.08 in 10.0 mi SSW 6.9 mph - N/A   Overcast
1:53 AM 62.1 °F 55.0 °F 78% 30.06 in 10.0 mi SW 4.6 mph - N/A   Mostly Cloudy
2:53 AM 61.0 °F 55.0 °F 81% 30.06 in 10.0 mi SW 4.6 mph - N/A   Scattered Clouds
3:53 AM 61.0 °F 55.0 °F 81% 30.06 in 10.0 mi South 4.6 mph - N/A   Mostly Cloudy
4:53 AM 61.0 °F 54.0 °F 78% 30.03 in 10.0 mi Calm Calm - N/A   Partly Cloudy
5:53 AM 61.0 °F 55.0 °F 81% 30.04 in 10.0 mi North 3.5 mph - N/A   Overcast
6:53 AM 59.0 °F 55.9 °F 90% 30.09 in 6.0 mi West 12.7 mph - 0.01 in Rain Light Rain
7:53 AM 57.0 °F 54.0 °F 89% 30.14 in 10.0 mi West 3.5 mph - 0.05 in Rain Light Rain
8:53 AM 57.9 °F 54.0 °F 87% 30.15 in 7.0 mi South 4.6 mph - 0.02 in Rain Light Rain
9:53 AM 57.9 °F 53.1 °F 84% 30.17 in 8.0 mi WSW 9.2 mph - 0.04 in Rain Light Rain
10:53 AM 59.0 °F 53.1 °F 81% 30.16 in 10.0 mi WSW 11.5 mph - 0.05 in Rain Light Rain
11:53 AM 60.1 °F 54.0 °F 80% 30.14 in 10.0 mi WSW 10.4 mph - 0.00 in Rain Light Rain
12:53 PM 63.0 °F 54.0 °F 72% 30.12 in 10.0 mi West 8.1 mph - 0.00 in   Overcast
1:53 PM 69.1 °F 54.0 °F 58% 30.07 in 10.0 mi WSW 8.1 mph - N/A   Clear
2:53 PM 73.0 °F 57.0 °F 57% 30.04 in 10.0 mi West 10.4 mph - N/A   Clear
3:53 PM 73.0 °F 55.9 °F 55% 30.02 in 10.0 mi SW 15.0 mph 18.4 mph N/A   Partly Cloudy
4:53 PM 73.9 °F 57.0 °F 55% 30.01 in 10.0 mi SW 15.0 mph - N/A   Partly Cloudy
5:53 PM 73.0 °F 57.0 °F 57% 30.00 in 10.0 mi SW 18.4 mph - N/A   Clear
6:53 PM 71.1 °F 55.9 °F 59% 30.02 in 10.0 mi SW 17.3 mph - N/A   Clear
7:53 PM 64.0 °F 53.1 °F 67% 30.06 in 10.0 mi WSW 9.2 mph - N/A   Clear
8:53 PM 62.1 °F 55.9 °F 80% 30.07 in 10.0 mi SSW 11.5 mph - N/A   Clear
9:53 PM 60.1 °F 54.0 °F 80% 30.10 in 10.0 mi SSW 10.4 mph - N/A   Clear
10:53 PM 59.0 °F 54.0 °F 83% 30.09 in 10.0 mi SW 9.2 mph - N/A   Clear
11:53 PM 57.9 °F 54.0 °F 87% 30.10 in 10.0 mi WSW 5.8 mph - N/A   Clear